www.pogodaiklimat.ru

АРХИВ ПОГОДЫ в Сан-Франциско

Время (UTC), дата Ветер
(напр.,м/с)
 
Видим.   Явления Облачность Т
(С)
Тd
(С)
f
(%)
Тe
(С)
Тes
(С)
Комфортность

P
(гПа)

Po
(гПа)
Тmin
(С)
Tmax
(С)
R
(мм)
SD
(см)
19:56 13.12 штиль  16 км    8/0 6000 м
[средняя] 
+12.2  +7.2  71  +12  +15    1020.1  1019.8         
20:56 13.12 штиль  14 км    8/0 6000 м
[средняя] 
+13.3  +7.8  69  +13  +16    1019.4  1018.8         
21:56 13.12 штиль  16 км    8/0 6000 м
[средняя] 
+15.0  +6.7  58  +15  +18    1018.6  1018.1         
22:56 13.12 СВ  16 км    5/0 6000 м
[средняя] 
+14.4  +8.9  70  +14  +17    1018.2  1017.8         
23:56 13.12 штиль  16 км    5/0 6000 м
[средняя] 
+14.4  +6.7  60  +14  +16    1018.2  1017.8         
00:56 14.12 штиль  16 км    5/0 6000 м
[средняя] 
+13.9  +7.2  64  +14  +14    1017.9  1017.5         
01:56 14.12 З  16 км    2/0 6000 м
[средняя] 
+12.8  +2.8  51  +11  +11    1018.2  1017.8         
02:56 14.12 З  16 км    ясно  +12.2  +7.2  71  +10  +10    1018.1  1017.8         
03:56 14.12 З  16 км    2/0 6000 м
[средняя] 
+11.7  +8.9  83  +9  +9    1018.3  1017.8         
04:56 14.12 СЗ  16 км    2/0 6000 м
[средняя] 
+11.7  +9.4  86  +9  +9    1018.3  1017.8         
05:56 14.12 З  16 км    2/0 6000 м
[средняя] 
+11.1  +9.4  89  +9  +9    1018.3  1017.8         
06:56 14.12 З  13 км    5/0 6000 м
[средняя] 
+10.6  +9.4  92  +10  +10    1018.4  1018.1         
07:56 14.12 З  16 км    5/0 5100 м
[средняя] 
+10.0  +6.0  76  +9  +9    1018.2  1017.8         
08:56 14.12 штиль  16 км    5/0 5100 м
[средняя] 
+10.0  +6.0  76  +9  +9    1018.1  1017.8         
09:56 14.12 Ю  16 км    2/0 6000 м
[средняя] 
+7.8  +3.9  76  +6  +6    1018.0  1017.5         
10:56 14.12 штиль  16 км    2/0 6000 м
[средняя] 
+7.8  +4.4  79  +7  +7    1017.9  1017.5         
11:56 14.12 З  16 км    2/0 6000 м
[средняя] 
+6.7  +3.9  82  +5  +5    1017.6  1017.1         
12:56 14.12 ЮЗ  16 км    2/0 6000 м
[средняя] 
+6.7  +3.9  82  +4  +4    1017.8  1017.5         
13:56 14.12 штиль  16 км    2/0 6000 м
[средняя] 
+7.2  +4.4  82  +6  +6    1018.2  1017.8         
14:56 14.12 штиль  16 км    2/0 6000 м
[средняя] 
+7.2  +5.6  90  +6  +6    1018.7  1018.5         
15:56 14.12 штиль  14 км    2/0 6000 м
[средняя] 
+8.3  +6.7  90  +7  +7    1019.2  1018.8         
16:56 14.12 штиль  13 км    2/0 6000 м
[средняя] 
+11.1  +8.3  83  +10  +11    1020.0  1019.5         
17:56 14.12 штиль  14 км    2/0 6000 м
[средняя] 
+11.7  +8.3  80  +11  +13    1020.3  1019.8    +11.7     
18:56 14.12 СВ  14 км    2/0 6000 м
[средняя] 
+12.2  +8.3  77  +11  +13    1020.0  1019.5         
19:56 14.12 СВ  14 км    ясно  +13.3  +8.3  72  +13  +18    1019.4  1019.2         
20:56 14.12 С  14 км    ясно  +13.9  +9.4  74  +13  +18    1019.0  1018.5         
21:56 14.12 СВ  14 км    2/0 6000 м
[средняя] 
+14.4  +8.9  70  +14  +19    1018.7  1018.1         
22:56 14.12 штиль  16 км    5/0 6000 м
[средняя] 
+16.7  +8.3  58  +17  +20    1018.6  1018.1         
23:56 14.12 С  16 км    5/0 6000 м
[средняя] 
+17.2  +5.6  46  +17  +18    1018.6  1018.1         
00:56 15.12 С  16 км    5/0 6000 м
[средняя] 
+17.8  +1.7  34  +18  +18    1018.9  1018.5         
01:56 15.12 З   16 км    2/0 6000 м
[средняя] 
+13.3  +6.1  62  +12  +12    1019.4  1019.2         
02:56 15.12 В  16 км    ясно  +13.3  +6.1  62  +12  +12    1020.2  1019.8         
03:56 15.12 штиль  16 км    ясно  +13.3  +5.6  60  +13  +13    1020.3  1019.8         
04:56 15.12 штиль  16 км    ясно  +11.7  +3.9  59  +11  +11    1020.8  1020.5         
05:56 15.12 штиль  16 км    ясно  +11.7  +3.3  56  +11  +11    1021.2  1020.9    +17.8     
06:56 15.12 ЮВ  16 км    ясно  +10.6  +5.0  68  +9  +9    1021.4  1020.9         
07:56 15.12 штиль  16 км    ясно  +10.6  +5.6  71  +10  +10    1021.4  1020.9         
08:56 15.12 ЮЗ  13 км    ясно  +11.1  +5.0  66  +10  +10    1021.4  1021.2         
09:56 15.12 Ю  13 км    2/0 5400 м
[средняя] 
+7.2  +3.3  76  +6  +6    1021.5  1021.2         
10:56 15.12 ЮЗ  13 км    2/0 5400 м
[средняя] 
+7.2  +3.3  76  +5  +5    1021.8  1021.5         
11:56 15.12 ЮЗ  13 км    2/0 5400 м
[средняя] 
+7.8  +3.9  76  +5  +5    1021.7  1021.2    +11.7     
12:56 15.12 Ю  13 км    2/0 5400 м
[средняя] 
+8.3  +4.4  76  +7  +7    1021.2  1020.9         
13:56 15.12 Ю  13 км    2/0 5400 м
[средняя] 
+7.8  +5.0  82  +6  +6    1021.5  1021.2         
14:56 15.12 Ю  13 км    2/0 5400 м
[средняя] 
+8.9  +6.1  83  +8  +8    1021.4  1020.9         
15:56 15.12 штиль  14 км    8/0 6000 м
[средняя] 
+9.4  +6.1  80  +9  +9    1021.5  1021.2         
16:56 15.12 штиль  14 км    8/0 6000 м
[средняя] 
+10.6  +6.7  77  +10  +10    1022.1  1021.9         
17:56 15.12 штиль  13 км    8/0 6000 м
[средняя] 
+12.2  +7.2  71  +12  +13    1022.1  1021.5    +12.2     
18:56 15.12 В  13 км    8/0 6000 м
[средняя] 
+12.2  +5.6  64  +11  +12    1021.6  1021.2         

 

Местоположение метеостанции San Francisco International Airport: широта 37.6196 долгота -122.3656 высота над уровнем моря 3 м.

В архиве по умолчанию представлена погода в Сан-Франциско за последние 1-2 суток. Обновление информации о фактической погоде в базе происходит ежечасно! Архивные данные за месяц целиком и за предыдущие месяцы Вы можете получить, выбрав интересующий диапазон дат из раскрывающегося списка и нажав кнопку "Ввод!".

Внимание! Архив погоды МЕТАР в базе сайта в настоящее время начинается c 1 января 2013 г. Нет смысла пытаться выбрать более раннюю дату.

Внимание! Время в таблицах - всемирное. Для получения местного времени необходимо прибавить поправку, которая в Сан-Франциско равна -8 ч.

Ветер - указаны скорость ветра в м/с и направление, откуда дует ветер: С - северный, СВ - северо-восточный, В - восточный, ЮВ - юго-восточный, Ю - южный, ЮЗ - юго-западный, З - западный, СЗ - северо-западный.
Видимость - горизонтальная дальность видимости в метрах или километрах. При видимости от 1 до 10 км при отсутствии осадков обычно наблюдается дымка, при ухудшении видимости до 1 км и менее - туман. В сухую погоду видимость может ухудшаться дымом, пылью или мглою.
Атмосферные явления - указаны явления, наблюдавшиеся в указанный момент времени.
Облачность - указаны через наклонную черту верхняя и нижняя облачность в баллах и высота нижней границы облаков в метрах. Внимание: облачность, как и прочие метеорологические величины в США измеряются автоматическими метеостанциями. Указанные значения в баллах носят условный характер и показывают процент времени, в течение которого, в среднем, лазерный луч высотомера отражался от облаков обратно.
T - Температура воздуха - температура, измеренная на высоте 2 м над землей.
Td - Температура точки росы - температура, при понижении до которой содержащийся в воздухе водяной пар достигнет насыщения.
f - Относительная влажность воздуха - влажноcть воздуха, измеренная на высоте 2 м над землей.
Te - Эффективная температура - температура, которую ощущает одетый по сезону человек в тени. Характеристика душности погоды. При расчете учитывается влияние влажности воздуха и скорости ветра на теплоощущения человека.
Tes - Эффективная температура на солнце - температура, которую ощущает человек, с поправкой на солнечный нагрев. Характеристика знойности погоды. Зависит от высоты солнца над горизонтом, облачности и скорости ветра. Ночью, в пасмурную погоду, а также при ветре 12 м/с и более поправка равна нулю.
P - Атмосферное давление - приведенное к уровню моря атмосферное давление.
Po - Атмосферное давление - измеренное на уровне метеостанции атмосферное давление.
Tmin - Минимальная температура - минимум температуры воздуха на высоте 2 м над землей.
Tmax - Максимальная температура - максимум температуры воздуха на высоте 2 м над землей.
R - Количество осадков - Количество выпавших осадков за 3 или 6 часов, мм.
SD - Снежный покров - Высота снежного покрова, см.